This is the latest recevied weather packets stored in our database for station/object WA5TET. If no packets are shown the sender has not sent any weather packets the latest 10 day(s).
| Time | Temp. | Humidity | Pressure | Rain* | Wind** | Luminosity | Snow |
|---|---|---|---|---|---|---|---|
| 1788625008 | 34.44° C | 47% | 1013.8 hPa | 0 mm | - | 778 W/m² | - |
| 1788624705 | 33.89° C | 46% | 1013.8 hPa | 0 mm | - | 778 W/m² | - |
| 1788624405 | 33.89° C | 48% | 1013.7 hPa | 0 mm | - | 763 W/m² | - |
| 1788624104 | 34.44° C | 48% | 1013.7 hPa | 0 mm | - | 753 W/m² | - |
| 1788623799 | 33.89° C | 48% | 1013.7 hPa | 0 mm | - | 732 W/m² | - |
| 1788623498 | 33.89° C | 46% | 1013.7 hPa | 0 mm | - | 721 W/m² | - |
| 1788623198 | 33.89° C | 50% | 1013.8 hPa | 0 mm | - | 709 W/m² | - |
| 1788622893 | 33.89° C | 49% | 1013.7 hPa | 0 mm | - | 690 W/m² | - |
| 1788622589 | 33.89° C | 49% | 1013.7 hPa | 0 mm | - | 673 W/m² | - |
| 1788622284 | 32.78° C | 52% | 1013.6 hPa | 0 mm | - | 655 W/m² | - |
| 1788621980 | 32.78° C | 54% | 1013.6 hPa | 0 mm | - | 639 W/m² | - |
| 1788621674 | 32.22° C | 54% | 1013.7 hPa | 0 mm | - | 621 W/m² | - |
| 1788621369 | 32.22° C | 55% | 1013.7 hPa | 0 mm | - | 595 W/m² | - |
| 1788621064 | 32.78° C | 53% | 1013.6 hPa | 0 mm | - | 576 W/m² | - |
| 1788620760 | 33.33° C | 53% | 1013.6 hPa | 0 mm | - | 563 W/m² | - |
| 1788620458 | 32.78° C | 54% | 1013.7 hPa | 0 mm | - | 541 W/m² | - |
| 1788620156 | 33.33° C | 52% | 1013.5 hPa | 0 mm | - | 520 W/m² | - |
| 1788619856 | 32.78° C | 54% | 1013.5 hPa | 0 mm | - | 504 W/m² | - |
| 1788619551 | 32.22° C | 55% | 1013.5 hPa | 0 mm | - | 483 W/m² | - |
| 1788619250 | 32.22° C | 56% | 1013.5 hPa | 0 mm | - | 462 W/m² | - |
| 1788618950 | 32.22° C | 55% | 1013.6 hPa | 0 mm | - | 440 W/m² | - |
| 1788618645 | 32.22° C | 56% | 1013.5 hPa | 0 mm | - | 226 W/m² | - |
| 1788618344 | 32.22° C | 56% | 1013.5 hPa | 0 mm | - | 178 W/m² | - |
| 1788618039 | 31.67° C | 57% | 1013.5 hPa | 0 mm | - | 136 W/m² | - |
| 1788617739 | 31.11° C | 58% | 1013.5 hPa | 0 mm | - | 82 W/m² | - |
* Rain latest hour (hover to see other rain measurements)
** Current wind speed in m/s (hover to see current wind gust speed)